Volver al catálogo

STARLINK-4564

ActivoComunicacionesVLEO
NORAD 53560·PAYLOAD·🇺🇸 United States

Lanzado Aug 19, 2022 desde Cape Canaveral Space Force Station

Loading…

Próximos Pases (próximas 24 horas)

TLE

ActualizadoSource: CelesTrak SupGP

Época: Sep 14, 2026, 20:37 UTC

1 53560C 22101AK  26257.85951389  .00029641  00000+0  95316-3 0  2570
2 53560  53.1565 276.0554 0001202  89.3761 167.4591 15.31687815    13

Sigue STARLINK-4564 en tiempo real con AllMySat

Download on the App Store